[[{"header":{"parameterUnit":"m.s-1","parameterCategory":1,"la1":30.2991,"la2":30.254,"lo1":-89.0895,"lo2":-89.0444,"dy":0.0017,"dx":0.0017,"nx":28,"ny":28,"refTime":"2025-01-08T03:00:00:Z","depth":0,"parameterNumber":2,"parameterNumberName":"U-component_of_WINDS"},"data":[0,0,0,0,0,0,0,0,0,0,0,0,0,0,0,0,0,0,0,0,0,0,0,0,0,0,0,0,0,0,0,0,0,0,0,0,0,0,0,0,0,0,0,0,0,0,0,0,0,0,0,0,0,0,0,0,0,0,1.2832,1.2832,0,1.2816,1.2816,1.2815,1.2808,1.2808,1.2808,1.2808,1.279,1.2789,1.2789,0,0,0,0,0,0,0,0,0,0,0,0,0,1.2856,1.2856,1.2832,1.2832,1.2832,1.2816,1.2816,1.2815,1.2808,1.2808,1.2808,1.2808,1.279,1.2789,1.2789,0,0,0,0,0,0,0,0,0,0,0,0,0,1.2843,1.2855,1.2832,1.2826,1.2826,1.2816,1.2816,1.2815,1.2808,1.2808,1.2808,1.2808,1.279,1.2789,1.2789,1.2783,0,0,1.2786,1.2786,0,0,0,0,0,0,0,0,1.2844,1.2842,1.2827,1.2827,1.2826,1.2814,1.2817,1.2804,1.2808,1.2815,1.2808,1.2809,1.2798,1.2796,1.2793,1.2782,1.2781,1.2786,1.2786,1.2785,1.2785,0,0,0,0,0,0,0,1.2845,1.2843,1.2826,1.2827,1.2826,1.2824,1.2822,1.2815,1.2806,1.2814,1.2814,1.2812,1.2797,1.2794,1.2793,1.2781,1.2786,1.2786,1.2785,1.2785,1.2765,1.2765,0,0,0,0,0,0,1.2847,1.2844,1.2826,1.2825,1.2835,1.2824,1.2822,1.2818,1.2806,1.2805,1.2812,1.2812,1.2795,1.2794,1.2792,1.2785,1.2785,1.2785,1.2784,1.2765,1.2765,1.2765,0,0,0,0,0,0,1.2847,1.2845,1.2827,1.2834,1.2832,1.2823,1.2819,1.2818,1.2814,1.2805,1.2803,1.281,1.2795,1.2793,1.2786,1.2784,1.2784,1.2784,1.2765,1.2765,1.2765,1.277,0,0,0,0,0,0,1.2848,1.2846,1.2843,1.2834,1.2831,1.2821,1.2819,1.2817,1.2813,1.2812,1.2802,1.2801,1.2795,1.2787,1.2785,1.2783,1.2783,1.2765,1.2765,1.2765,1.277,1.277,1.277,0,0,0,0,0,1.2849,1.2845,1.2843,1.2841,1.2829,1.2821,1.2819,1.2813,1.2813,1.2811,1.2805,1.2801,1.2785,1.2786,1.2784,1.2782,1.2765,1.2765,1.2765,1.277,1.277,1.277,0,0,0,0,0,0,1.2853,1.2843,1.2842,1.2835,1.2829,1.282,1.2816,1.2814,1.2807,1.2807,1.2799,1.2797,1.279,1.2785,1.2787,1.2776,1.2775,1.2774,1.2779,1.2779,1.278,1.2781,1.2782,0,0,0,0,0,1.2853,1.2848,1.284,1.2834,1.2832,1.2825,1.2821,1.2817,1.281,1.2808,1.2801,1.2794,1.2788,1.2783,1.2777,1.277,1.2767,1.2767,1.2767,1.2767,1.2767,1.2763,1.2763,1.2765,1.2765,1.2765,0,0,1.2853,1.2847,1.2844,1.2835,1.283,1.2825,1.2822,1.2816,1.2812,1.2806,1.2799,1.2794,1.2786,1.2779,1.2775,1.2775,1.2766,1.2767,1.2768,1.2767,1.2763,1.2763,1.2763,1.2764,1.2764,1.2764,0,0,1.285,1.2846,1.2841,1.2836,1.2829,1.2825,1.2824,1.2815,1.2812,1.2805,1.2801,1.2795,1.2784,1.2779,1.2774,1.2771,1.2768,1.2769,1.277,1.2767,1.2766,1.2766,1.2765,1.2765,1.2769,1.2769,1.2769,0,1.2851,1.2843,1.2839,1.2833,1.2829,1.2825,1.282,1.2816,1.2806,1.2804,1.2803,1.279,1.2784,1.2776,1.2775,1.2772,1.277,1.277,1.2767,1.2767,1.2767,1.2765,1.2765,1.2769,1.2769,1.2769,1.2769,0,1.2845,1.2839,1.2836,1.2828,1.2824,1.2819,1.2813,1.281,1.2807,1.2803,1.2796,1.2789,1.2781,1.2779,1.2775,1.277,1.277,1.2768,1.2767,1.2767,1.2765,1.2765,1.277,1.2769,1.2769,1.2769,0,0,1.2842,1.2833,1.2832,1.2829,1.2821,1.2817,1.2812,1.2805,1.2802,1.2796,1.2792,1.2783,1.2782,1.2777,1.2773,1.277,1.2769,1.2769,1.2769,1.2769,1.2763,1.2764,1.2764,1.2767,1.2767,1.2767,1.2764,0,1.2838,1.283,1.2826,1.2819,1.2814,1.281,1.2806,1.2801,1.2797,1.2792,1.2788,1.2782,1.2781,1.2778,1.2775,1.277,1.2767,1.277,1.2762,1.2762,1.2764,1.2763,1.2764,1.2761,1.2763,1.2763,1.2763,0,1.2832,1.2827,1.282,1.2814,1.2812,1.2808,1.2802,1.2797,1.2792,1.2789,1.2785,1.2781,1.2776,1.2776,1.2768,1.277,1.2767,1.2764,1.2764,1.2762,1.2762,1.2761,1.276,1.276,1.2762,1.2762,1.2762,0,1.2831,1.2823,1.2817,1.2815,1.2808,1.2805,1.2802,1.2796,1.2793,1.2788,1.2785,1.2779,1.2776,1.2771,1.2767,1.2767,1.276,1.2759,1.2757,1.2757,1.2755,1.2755,1.2753,1.2754,1.2754,1.2754,1.2754,0,1.2827,1.2822,1.2817,1.2814,1.2809,1.2805,1.28,1.2796,1.2792,1.2788,1.2784,1.278,1.2775,1.277,1.2766,1.2761,1.2759,1.2757,1.2756,1.2757,1.2757,1.2754,1.2754,1.2754,1.2754,1.2754,1.2754,0,1.2824,1.2821,1.2815,1.2809,1.2808,1.2804,1.2799,1.2796,1.2792,1.2787,1.2786,1.278,1.2775,1.277,1.2762,1.276,1.2754,1.2753,1.2756,1.2756,1.2754,1.2754,1.2749,1.2749,1.275,1.275,1.275,0,1.2821,1.2818,1.2812,1.281,1.2807,1.2802,1.2799,1.2796,1.2792,1.2787,1.2784,1.2778,1.2774,1.2765,1.276,1.2755,1.2753,1.2752,1.2752,1.2754,1.2753,1.2753,1.2753,1.2752,1.2752,1.2752,1.2752,0,1.2816,1.2815,1.2811,1.2806,1.2803,1.2799,1.2795,1.2793,1.2789,1.2785,1.278,1.2777,1.277,1.2764,1.2759,1.2755,1.2753,1.2752,1.2751,1.2752,1.2754,1.2753,1.2756,1.2752,1.2752,1.2752,1.2752,1.2752,1.2813,1.281,1.2806,1.2802,1.2799,1.2796,1.2792,1.2789,1.2785,1.278,1.2778,1.2773,1.2768,1.276,1.2757,1.2753,1.2752,1.2751,1.2751,1.275,1.275,1.2755,1.2752,1.2752,1.2752,1.2752,1.2752,0,1.2808,1.2805,1.2802,1.2797,1.2794,1.2793,1.2789,1.2786,1.2782,1.2778,1.2774,1.2768,1.2763,1.2759,1.2754,1.2751,1.275,1.275,1.275,1.2749,1.2751,1.2752,1.2751,1.2751,1.2751,1.2751,1.2751,1.2751,1.2804,1.28,1.2798,1.2792,1.279,1.2785,1.2783,1.278,1.2777,1.2771,1.2768,1.2765,1.2761,1.2756,1.2752,1.275,1.2749,1.2749,1.2747,1.2749,1.2749,1.2749,1.275,1.2749,1.2748,1.2745,1.2745,1.2745]},{"header":{"parameterUnit":"m.s-1","parameterCategory":1,"la1":30.2991,"la2":30.254,"lo1":-89.0895,"lo2":-89.0444,"dy":0.0017,"dx":0.0017,"nx":28,"ny":28,"refTime":"2025-01-08T03:00:00:Z","depth":0,"parameterNumber":3,"parameterNumberName":"V-component_of_WINDS"},"data":[0,0,0,0,0,0,0,0,0,0,0,0,0,0,0,0,0,0,0,0,0,0,0,0,0,0,0,0,0,0,0,0,0,0,0,0,0,0,0,0,0,0,0,0,0,0,0,0,0,0,0,0,0,0,0,0,0,0,-5.8843,-5.8845,0,-5.9014,-5.9016,-5.9018,-5.8961,-5.8957,-5.8953,-5.895,-5.9121,-5.9128,-5.9136,0,0,0,0,0,0,0,0,0,0,0,0,0,-5.8461,-5.8469,-5.8843,-5.8845,-5.8847,-5.9014,-5.9016,-5.9019,-5.8961,-5.8957,-5.8952,-5.8948,-5.9118,-5.9127,-5.9137,0,0,0,0,0,0,0,0,0,0,0,0,0,-5.8629,-5.8471,-5.8842,-5.8839,-5.884,-5.9014,-5.9016,-5.9019,-5.8962,-5.8957,-5.8951,-5.8946,-5.9115,-5.9127,-5.9138,-5.9325,0,0,-5.9175,-5.918,0,0,0,0,0,0,0,0,-5.862,-5.8643,-5.8837,-5.8839,-5.8841,-5.896,-5.8944,-5.9121,-5.8964,-5.8916,-5.895,-5.8943,-5.9072,-5.9087,-5.9131,-5.9333,-5.934,-5.9176,-5.9184,-5.9189,-5.9192,0,0,0,0,0,0,0,-5.8608,-5.8636,-5.891,-5.884,-5.8842,-5.8827,-5.8845,-5.8978,-5.9023,-5.8919,-5.8916,-5.8937,-5.9072,-5.912,-5.9135,-5.9342,-5.9176,-5.9187,-5.9194,-5.9199,-5.9704,-5.971,0,0,0,0,0,0,-5.8596,-5.8626,-5.8905,-5.8916,-5.8715,-5.8838,-5.8858,-5.8928,-5.9021,-5.903,-5.8942,-5.8934,-5.9102,-5.9121,-5.914,-5.9364,-5.9189,-5.92,-5.9207,-5.9698,-5.9706,-5.9712,0,0,0,0,0,0,-5.8588,-5.8621,-5.8898,-5.877,-5.8804,-5.8851,-5.8929,-5.8934,-5.8982,-5.9038,-5.9045,-5.8983,-5.9098,-5.9124,-5.9279,-5.9369,-5.9205,-5.9216,-5.9691,-5.97,-5.9709,-5.9814,0,0,0,0,0,0,-5.8577,-5.8619,-5.8691,-5.8772,-5.8811,-5.9036,-5.8935,-5.8941,-5.9004,-5.8995,-5.9079,-5.9087,-5.9096,-5.9262,-5.9291,-5.9383,-5.9226,-5.9683,-5.9695,-5.9706,-5.9802,-5.9825,-5.9845,0,0,0,0,0,-5.8564,-5.8713,-5.8695,-5.8729,-5.8903,-5.9041,-5.9063,-5.9072,-5.9011,-5.9083,-5.9119,-5.9084,-5.9355,-5.9278,-5.9311,-5.9408,-5.9677,-5.9692,-5.9705,-5.9793,-5.9821,-5.9845,0,0,0,0,0,0,-5.864,-5.8724,-5.8705,-5.8885,-5.8957,-5.9031,-5.9123,-5.9101,-5.9191,-5.9179,-5.9184,-5.9203,-5.9363,-5.9401,-5.9314,-5.9592,-5.9507,-5.9528,-5.9562,-5.9589,-5.961,-5.9598,-5.9236,0,0,0,0,0,-5.8678,-5.8785,-5.8852,-5.9004,-5.9041,-5.9076,-5.9137,-5.9137,-5.9211,-5.924,-5.9288,-5.9359,-5.946,-5.9527,-5.9623,-5.9807,-5.9824,-5.989,-5.9911,-5.9928,-5.9947,-6.0046,-6.0076,-5.9758,-5.9758,-5.9758,0,0,-5.8757,-5.8816,-5.8883,-5.9021,-5.9076,-5.9186,-5.9102,-5.9221,-5.9302,-5.9258,-5.9409,-5.9446,-5.9526,-5.9697,-5.9774,-5.9733,-6.0038,-5.9946,-5.996,-5.9969,-6.0064,-6.0094,-6.0121,-5.9768,-5.9766,-5.9764,0,0,-5.8957,-5.9013,-5.9146,-5.9204,-5.929,-5.9312,-5.9344,-5.9422,-5.9446,-5.9597,-5.9567,-5.9661,-5.9836,-5.9894,-5.9947,-6.0169,-6.014,-6.02,-6.0311,-6.0408,-6.0433,-6.0456,-6.0534,-6.0563,-6.0218,-6.0218,-6.0218,0,-5.9045,-5.921,-5.9217,-5.9339,-5.94,-5.9367,-5.9501,-5.9556,-5.9668,-5.971,-5.9663,-5.9881,-5.9932,-6.0116,-6.017,-6.0214,-6.025,-6.019,-6.043,-6.0452,-6.0473,-6.0548,-6.0578,-6.0225,-6.0224,-6.0223,-6.0222,0,-5.9312,-5.9427,-5.9524,-5.9635,-5.9707,-5.9834,-5.9859,-5.9931,-5.9925,-5.9952,-6.0105,-6.0166,-6.0274,-6.0317,-6.0312,-6.0501,-6.0473,-6.0428,-6.0342,-6.051,-6.058,-6.0609,-6.0234,-6.0232,-6.023,-6.0228,0,0,-5.9566,-5.9679,-5.9715,-5.9764,-5.9856,-5.9945,-6.007,-6.0177,-6.0238,-6.0316,-6.042,-6.0568,-6.0527,-6.0587,-6.0587,-6.0673,-6.0844,-6.0617,-6.0619,-6.0657,-6.1055,-6.1089,-6.1122,-6.0826,-6.0831,-6.0836,-6.1048,0,-5.9773,-5.9996,-6.0005,-6.0207,-6.0312,-6.0282,-6.0391,-6.0458,-6.0487,-6.0579,-6.0609,-6.0714,-6.0652,-6.0688,-6.0771,-6.0806,-6.0924,-6.0791,-6.0922,-6.0926,-6.0903,-6.1159,-6.1195,-6.1393,-6.1076,-6.1081,-6.1084,0,-6.0046,-6.0134,-6.0347,-6.0423,-6.0468,-6.0566,-6.0664,-6.0754,-6.0829,-6.0843,-6.091,-6.0898,-6.1025,-6.0935,-6.1108,-6.1017,-6.1071,-6.1096,-6.1104,-6.1117,-6.1015,-6.1178,-6.1457,-6.1486,-6.1128,-6.1124,-6.1121,0,-6.0209,-6.0381,-6.053,-6.0574,-6.0667,-6.0736,-6.0778,-6.0848,-6.0912,-6.0997,-6.1038,-6.1136,-6.119,-6.1266,-6.128,-6.1214,-6.1454,-6.1366,-6.1469,-6.1469,-6.1521,-6.1517,-6.1812,-6.1556,-6.1556,-6.1555,-6.1554,0,-6.044,-6.0571,-6.0605,-6.0697,-6.0842,-6.0852,-6.0995,-6.1031,-6.1094,-6.1191,-6.117,-6.1261,-6.1275,-6.1369,-6.1381,-6.1523,-6.1547,-6.1561,-6.1563,-6.1564,-6.1562,-6.1599,-6.1585,-6.1563,-6.1561,-6.156,-6.1558,0,-6.0647,-6.0675,-6.0836,-6.0911,-6.0933,-6.1037,-6.1101,-6.1188,-6.1214,-6.1337,-6.1367,-6.1407,-6.1517,-6.1539,-6.1668,-6.1676,-6.1845,-6.1832,-6.182,-6.1819,-6.192,-6.1911,-6.2249,-6.2293,-6.2009,-6.2011,-6.2014,0,-6.0793,-6.0893,-6.098,-6.1044,-6.109,-6.1194,-6.1259,-6.1271,-6.1339,-6.1432,-6.1508,-6.1616,-6.1703,-6.1879,-6.1919,-6.2018,-6.2007,-6.2119,-6.2022,-6.2019,-6.2009,-6.2003,-6.2012,-6.2138,-6.2141,-6.2143,-6.2145,0,-6.1048,-6.1057,-6.1152,-6.1253,-6.1331,-6.1411,-6.1486,-6.1539,-6.1562,-6.1639,-6.1752,-6.182,-6.1952,-6.2059,-6.2158,-6.2199,-6.2176,-6.2176,-6.2205,-6.2206,-6.2195,-6.2202,-6.187,-6.2168,-6.2166,-6.2164,-6.2163,-6.2162,-6.1229,-6.1317,-6.1391,-6.1498,-6.1556,-6.1627,-6.1713,-6.175,-6.1845,-6.1955,-6.1956,-6.2079,-6.215,-6.2281,-6.2328,-6.2423,-6.2388,-6.243,-6.2441,-6.2451,-6.246,-6.218,-6.2441,-6.2441,-6.244,-6.2439,-6.2439,0,-6.1483,-6.153,-6.1628,-6.1735,-6.1818,-6.1791,-6.1872,-6.1944,-6.2053,-6.2122,-6.2209,-6.2338,-6.2441,-6.2489,-6.2591,-6.2658,-6.265,-6.2684,-6.2679,-6.2689,-6.2486,-6.2451,-6.2689,-6.2689,-6.2689,-6.2689,-6.2689,-6.2689,-6.1625,-6.1772,-6.179,-6.1965,-6.201,-6.2132,-6.2181,-6.2245,-6.2301,-6.2447,-6.2533,-6.2564,-6.2625,-6.2731,-6.2824,-6.2835,-6.2873,-6.2913,-6.2919,-6.2729,-6.2703,-6.2679,-6.2646,-6.2921,-6.2921,-6.3113,-6.3115,-6.3117]}]]